Regional Weather Roundup
Issued by NWS

Home | Current Version | Previous Version | Graphics & Text | Print | Product List | Glossary On
Versions: 1 2 3 4 5 6 7 8 9 10 11 12 13 14 15 16 17 18 19 20 21 22 23 24 25 26 27 28 29 30 31 32 33 34 35 36 37 38 39 40 41 42 43 44 45 46 47 48 49 50
000
ASUS43 KDMX 282008
RWRIA

WEATHER ROUNDUP FOR IOWA
NATIONAL WEATHER SERVICE DES MOINES IA
300 PM CDT THU JUL 28 2016

NOTE: "FAIR" INDICATES FEW OR NO CLOUDS BELOW 12,000 FEET WITH NO
SIGNIFICANT WEATHER AND/OR OBSTRUCTIONS TO VISIBILITY.

* - THESE STATIONS ARE NOT NWS STATIONS...THUS NOT UNDER NWS
QUALITY CONTROL.  THEY ALSO DO NOT REPORT WEATHER SUCH
AS PRECIPITATION OR FOG.

IAZ001>003-012>014-020>022-031>034-043>046-282100-
   NORTHWEST IOWA

CITY           SKY/WX    TMP DP  RH WIND       PRES   REMARKS
CARROLL *      MOSUNNY   79  66  65 N12       30.00F HX  81
CHEROKEE *     CLOUDY    75  63  65 N8        30.02F
DENISON *      MOSUNNY   79  64  61 N13       29.99F HX  81
LE MARS *      MOSUNNY   79  63  57 N8G15     30.03F HX  80
SHELDON *      PTSUNNY   77  64  65 N10       30.02F
SIOUX CITY     MOSUNNY   83  59  44 N13       30.01F HX  83
SPENCER        CLOUDY    74  61  63 N9        30.03F
STORM LAKE *     N/A     75  63  64 N9        30.03S
$$

IAZ055>058-069>071-079>083-090>094-282100-
   SOUTHWEST IOWA

CITY           SKY/WX    TMP DP  RH WIND       PRES   REMARKS
ATLANTIC *     MOSUNNY   81  66  61 N10       29.99F HX  83
CLARINDA *       N/A     84  66  54 MISG      30.00F HX  86
COUNCIL BLFS * MOSUNNY   82  66  57 NW9       30.00F HX  85
CRESTON *      MOSUNNY   81  64  57 N9G16     29.99F HX  82
HARLAN  *      PTSUNNY   79  66  65 N7G15     30.03F HX  81
LAMONI         MOSUNNY   83  66  56 N12       29.96F HX  85
RED OAK *      SUNNY     82  66  57 N9        29.99S HX  85
SHENANDOAH *   MOSUNNY   82  68  61 N9G15     29.99S HX  85
$$

IAZ047>049-059>061-072>074-084-282100-
   CENTRAL IOWA

CITY           SKY/WX    TMP DP  RH WIND       PRES   REMARKS
AMES           MOSUNNY   76  67  73 NW14      29.99R
ANKENY *         N/A    N/A N/A N/A MISG        N/A
BOONE *        CLOUDY    73  63  68 N12       30.00S
CHARITON *       N/A    N/A N/A N/A MISG        N/A
DES MOINES     PTSUNNY   80  64  58 NW10      29.97S HX  82
GRINNELL*      PTSUNNY   76  64  66 NW7       29.95F
KNOXVILLE *    MOSUNNY   77  64  65 NW13      29.96R
MARSHALLTOWN   PTSUNNY   77  66  68 N12       29.95S
NEWTON *       MOSUNNY   77  66  69 NW9G16    29.96R
PELLA *        PTSUNNY   79  65  62 NW9G17    29.96S HX  81
PERRY *          N/A     77  68  73 N9        30.00F
$$

IAZ004>006-015-016-023>025-035-036-282100-
   NORTH CENTRAL IOWA

CITY           SKY/WX    TMP DP  RH WIND       PRES   REMARKS
ALGONA *       CLOUDY    72  63  73 N8        30.02F
ESTHERVILLE    CLOUDY    71  63  75 N9        30.02F
FORT DODGE *   PTSUNNY   75  64  69 N8        30.01F
MASON CITY     CLOUDY    75  64  68 NW10      30.01R
FOREST CITY *  CLOUDY    73  61  64 NW9G18    30.00S
IOWA FALLS *   CLOUDY    76  64  66 NW14      30.00R
$$

IAZ007>011-017>019-026>030-037>042-050>054-066-282100-
   NORTHEAST IOWA

CITY           SKY/WX    TMP DP  RH WIND       PRES   REMARKS
CEDAR RAPIDS   MOSUNNY   80  69  69 NW13      29.90F HX  83
CHARLES CITY * PTSUNNY   75  68  78 N10G17    29.96F
CLINTON *      PTSUNNY   81  71  71 W10G17    29.89R HX  85
DECORAH *      CLOUDY    72  68  88 N8G15     29.94S
DUBUQUE        MOSUNNY   80  70  71 N13       29.90S HX  83
MONTICELLO *   MOSUNNY   79  70  73 NW12      29.89S HX  81
OELWEIN *      CLOUDY    75  68  78 NW10      29.94S
WATERLOO       CLOUDY    74  64  71 NW12      29.93S
$$

IAZ064-065-067-068-078-282100-
   EAST CENTRAL IOWA

CITY           SKY/WX    TMP DP  RH WIND       PRES   REMARKS
DAVENPORT      SUNNY     79  68  69 NW13      29.90R HX  81
IOWA CITY      PTSUNNY   82  67  60 NW10      29.91F HX  84
MT. PLEASANT * MOSUNNY   82  67  61 NW8       29.92S HX  84
MUSCATINE *    MOSUNNY   82  68  61 NW13      29.91R HX  85
QUAD CITIES    MOSUNNY   85  69  58 W18       29.87R HX  89
$$

IAZ062-063-075>077-085>089-095>099-282100-
   SOUTHEAST IOWA

CITY           SKY/WX    TMP DP  RH WIND       PRES   REMARKS
BURLINGTON     MOSUNNY   81  71  71 NW13G21   29.90R HX  85
FAIRFIELD *    MOSUNNY   79  66  65 NW12      29.93S HX  81
KEOKUK *       CLOUDY    82  70  65 NW8G16    29.90S HX  86
OSKALOOSA *    PTSUNNY   76  67  72 N8        29.94F
OTTUMWA        MOSUNNY   79  65  62 N12       29.92F HX  81
WASHINGTON *   MOSUNNY   79  68  69 NW10G18   29.93S HX  81
$$

ABBREVIATIONS USED IN REMARKS
   TC - TEMPERATURES IN CELSIUS
  WCI - WIND CHILL INDEX
   HX - HEAT INDEX
  VSB - VISIBILITY
$$





USA.gov is the U.S. government's official web portal to all federal, state and local government web resources and services.